[[{"header":{"parameterUnit":"m.s-1","parameterCategory":1,"la1":30.2991,"la2":30.254,"lo1":-89.0895,"lo2":-89.0444,"dy":0.0017,"dx":0.0017,"nx":28,"ny":28,"refTime":"2024-10-10T21:00:00:Z","depth":0,"parameterNumber":2,"parameterNumberName":"U-component_of_WINDS"},"data":[0,0,0,0,0,0,0,0,0,0,0,0,0,0,0,0,0,0,0,0,0,0,0,0,0,0,0,0,0,0,0,0,0,0,0,0,0,0,0,0,0,0,0,0,0,0,0,0,0,0,0,0,0,0,0,0,0,0,-1.4702,-1.4702,0,-1.4706,-1.4706,-1.4706,-1.4643,-1.4641,-1.464,-1.4638,-1.4645,-1.4647,-1.4648,0,0,0,0,0,0,0,0,0,0,0,0,0,-1.4643,-1.4644,-1.4702,-1.4702,-1.4702,-1.4706,-1.4706,-1.4706,-1.4643,-1.4641,-1.4639,-1.4637,-1.4644,-1.4646,-1.4648,0,0,0,0,0,0,0,0,0,0,0,0,0,-1.466,-1.4644,-1.4702,-1.4671,-1.4669,-1.4706,-1.4706,-1.4706,-1.4644,-1.4641,-1.4639,-1.4636,-1.4644,-1.4646,-1.4649,-1.4717,0,0,-1.4657,-1.4658,0,0,0,0,0,0,0,0,-1.4659,-1.4662,-1.4676,-1.4673,-1.467,-1.4671,-1.4688,-1.471,-1.4645,-1.4653,-1.4638,-1.4635,-1.4656,-1.4657,-1.4664,-1.4717,-1.4717,-1.4657,-1.4659,-1.466,-1.4661,0,0,0,0,0,0,0,-1.4658,-1.4662,-1.4704,-1.4676,-1.4673,-1.4658,-1.4658,-1.4692,-1.4669,-1.4652,-1.4648,-1.4649,-1.4654,-1.4662,-1.4664,-1.4718,-1.4657,-1.4659,-1.4661,-1.4662,-1.4829,-1.4832,0,0,0,0,0,0,-1.466,-1.4661,-1.4704,-1.4704,-1.4658,-1.4661,-1.4661,-1.4674,-1.4669,-1.4665,-1.4651,-1.4646,-1.4658,-1.4661,-1.4664,-1.4745,-1.466,-1.4662,-1.4664,-1.4826,-1.483,-1.4833,0,0,0,0,0,0,-1.4659,-1.4665,-1.4703,-1.4681,-1.4685,-1.4665,-1.468,-1.4675,-1.4683,-1.4668,-1.4664,-1.4663,-1.4656,-1.466,-1.4704,-1.4744,-1.4664,-1.4666,-1.4823,-1.4828,-1.4831,-1.4907,0,0,0,0,0,0,-1.4658,-1.4665,-1.469,-1.4682,-1.4686,-1.4744,-1.4683,-1.4677,-1.4687,-1.468,-1.4678,-1.4675,-1.4655,-1.4701,-1.4707,-1.4746,-1.4668,-1.482,-1.4825,-1.483,-1.4901,-1.4913,-1.4924,0,0,0,0,0,-1.4656,-1.4711,-1.4691,-1.4697,-1.4717,-1.4746,-1.4748,-1.4724,-1.4691,-1.4716,-1.4707,-1.4675,-1.4738,-1.4706,-1.4712,-1.4753,-1.4817,-1.4824,-1.483,-1.4896,-1.4911,-1.4924,0,0,0,0,0,0,-1.4724,-1.4709,-1.4688,-1.4741,-1.4745,-1.4735,-1.4767,-1.474,-1.4754,-1.4747,-1.4716,-1.4716,-1.4767,-1.4764,-1.4728,-1.482,-1.4772,-1.478,-1.482,-1.4834,-1.4846,-1.4846,-1.467,0,0,0,0,0,-1.4745,-1.4769,-1.4755,-1.4804,-1.4807,-1.4787,-1.4798,-1.4779,-1.4782,-1.4784,-1.4777,-1.4783,-1.4804,-1.4819,-1.4837,-1.49,-1.4899,-1.4931,-1.4942,-1.4952,-1.496,-1.4995,-1.501,-1.4854,-1.4854,-1.4854,0,0,-1.479,-1.4785,-1.4802,-1.4818,-1.4819,-1.4845,-1.4789,-1.4819,-1.4839,-1.4788,-1.4831,-1.4826,-1.483,-1.4885,-1.4908,-1.4884,-1.5003,-1.496,-1.4968,-1.4971,-1.5003,-1.5018,-1.5031,-1.4858,-1.4857,-1.4857,0,0,-1.4885,-1.4882,-1.4924,-1.4926,-1.4928,-1.4914,-1.4924,-1.4918,-1.4913,-1.4954,-1.4918,-1.4941,-1.4978,-1.4983,-1.499,-1.5088,-1.506,-1.5095,-1.5156,-1.519,-1.5203,-1.5213,-1.525,-1.5264,-1.5102,-1.5103,-1.5103,0,-1.494,-1.4978,-1.4949,-1.4982,-1.4991,-1.4946,-1.4989,-1.4992,-1.5,-1.5008,-1.498,-1.5027,-1.5026,-1.5082,-1.5106,-1.5113,-1.5125,-1.5096,-1.5203,-1.5213,-1.5223,-1.5258,-1.5272,-1.5107,-1.5106,-1.5106,-1.5106,0,-1.5047,-1.5074,-1.5107,-1.5116,-1.5129,-1.5166,-1.5144,-1.5161,-1.514,-1.513,-1.5174,-1.5171,-1.5189,-1.5201,-1.5181,-1.5255,-1.524,-1.5208,-1.516,-1.5243,-1.5276,-1.5288,-1.5113,-1.5112,-1.511,-1.5109,0,0,-1.5186,-1.5178,-1.5191,-1.5195,-1.5194,-1.5215,-1.5252,-1.5269,-1.5285,-1.5292,-1.5323,-1.5355,-1.5326,-1.5335,-1.5315,-1.5345,-1.5426,-1.531,-1.5309,-1.5333,-1.5509,-1.5535,-1.5551,-1.5406,-1.5408,-1.541,-1.551,0,-1.528,-1.5341,-1.5316,-1.538,-1.5406,-1.5364,-1.5395,-1.5399,-1.539,-1.5412,-1.5402,-1.5427,-1.5385,-1.539,-1.5418,-1.541,-1.5461,-1.5402,-1.5437,-1.5438,-1.5439,-1.5567,-1.5594,-1.5688,-1.5522,-1.5524,-1.5526,0,-1.5398,-1.541,-1.5476,-1.5472,-1.5482,-1.5511,-1.5526,-1.5546,-1.555,-1.5541,-1.5551,-1.5525,-1.5562,-1.5513,-1.5564,-1.5525,-1.5538,-1.5536,-1.5539,-1.5543,-1.5488,-1.5577,-1.5717,-1.5732,-1.5545,-1.5543,-1.5542,0,-1.5495,-1.5528,-1.5572,-1.5577,-1.5573,-1.5594,-1.5594,-1.5595,-1.5607,-1.562,-1.5628,-1.5646,-1.5656,-1.567,-1.5651,-1.5616,-1.5706,-1.5654,-1.5702,-1.5703,-1.5724,-1.5724,-1.5871,-1.5729,-1.5729,-1.5729,-1.5728,0,-1.5604,-1.5647,-1.5616,-1.5644,-1.5691,-1.5663,-1.5711,-1.5705,-1.5707,-1.5734,-1.5698,-1.5724,-1.5695,-1.5719,-1.5704,-1.5751,-1.5755,-1.575,-1.5746,-1.5755,-1.5756,-1.5764,-1.5758,-1.5732,-1.5731,-1.5731,-1.573,0,-1.5722,-1.5702,-1.5749,-1.5741,-1.574,-1.5775,-1.5769,-1.5795,-1.5784,-1.5818,-1.5825,-1.5808,-1.5834,-1.5815,-1.5842,-1.5831,-1.5893,-1.5879,-1.5892,-1.5889,-1.5938,-1.5935,-1.6098,-1.6119,-1.5962,-1.5963,-1.5965,0,-1.5793,-1.5825,-1.5821,-1.5836,-1.5838,-1.5863,-1.5875,-1.5848,-1.5863,-1.5871,-1.5896,-1.5919,-1.5937,-1.5982,-1.5972,-1.5993,-1.598,-1.6036,-1.5983,-1.5991,-1.5984,-1.5983,-1.5987,-1.6047,-1.6049,-1.605,-1.6052,0,-1.5923,-1.5913,-1.5932,-1.5948,-1.5964,-1.5976,-1.5985,-1.5999,-1.5972,-1.5991,-1.6018,-1.6031,-1.6058,-1.6083,-1.61,-1.61,-1.6073,-1.6068,-1.608,-1.6091,-1.6098,-1.6097,-1.5923,-1.6065,-1.6063,-1.6062,-1.6062,-1.6061,-1.6022,-1.6049,-1.6051,-1.6074,-1.6077,-1.6087,-1.6111,-1.6103,-1.6124,-1.6144,-1.6127,-1.6159,-1.6164,-1.6184,-1.6188,-1.6214,-1.6191,-1.6209,-1.6214,-1.6219,-1.6227,-1.6092,-1.6216,-1.6216,-1.6216,-1.6215,-1.6215,0,-1.6152,-1.6151,-1.6172,-1.6186,-1.6205,-1.6175,-1.6184,-1.6202,-1.623,-1.6236,-1.6254,-1.6286,-1.6309,-1.6302,-1.6323,-1.6346,-1.6334,-1.6353,-1.6352,-1.6353,-1.6245,-1.6233,-1.6362,-1.6362,-1.6362,-1.6362,-1.6362,-1.6362,-1.6222,-1.6267,-1.6257,-1.6304,-1.6303,-1.6334,-1.6342,-1.6351,-1.6356,-1.6392,-1.6411,-1.6406,-1.6407,-1.6429,-1.645,-1.6447,-1.6458,-1.6482,-1.6475,-1.6375,-1.636,-1.6346,-1.6335,-1.6484,-1.6484,-1.6581,-1.6582,-1.6582]},{"header":{"parameterUnit":"m.s-1","parameterCategory":1,"la1":30.2991,"la2":30.254,"lo1":-89.0895,"lo2":-89.0444,"dy":0.0017,"dx":0.0017,"nx":28,"ny":28,"refTime":"2024-10-10T21:00:00:Z","depth":0,"parameterNumber":3,"parameterNumberName":"V-component_of_WINDS"},"data":[0,0,0,0,0,0,0,0,0,0,0,0,0,0,0,0,0,0,0,0,0,0,0,0,0,0,0,0,0,0,0,0,0,0,0,0,0,0,0,0,0,0,0,0,0,0,0,0,0,0,0,0,0,0,0,0,0,0,1.7171,1.717,0,1.7097,1.7096,1.7095,1.7062,1.7062,1.7062,1.7062,1.698,1.6978,1.6975,0,0,0,0,0,0,0,0,0,0,0,0,0,1.7278,1.7276,1.7171,1.717,1.7169,1.7097,1.7096,1.7095,1.7062,1.7062,1.7062,1.7062,1.6981,1.6978,1.6975,0,0,0,0,0,0,0,0,0,0,0,0,0,1.722,1.7276,1.7171,1.7144,1.7141,1.7097,1.7096,1.7095,1.7062,1.7062,1.7062,1.7062,1.6982,1.6978,1.6975,1.695,0,0,1.6964,1.6963,0,0,0,0,0,0,0,0,1.7224,1.7216,1.7149,1.7146,1.7142,1.7089,1.7103,1.7046,1.7062,1.7092,1.7062,1.7062,1.7016,1.7009,1.6995,1.6946,1.6943,1.6964,1.6962,1.696,1.6959,0,0,0,0,0,0,0,1.7228,1.7219,1.7141,1.7148,1.7144,1.7134,1.7126,1.7092,1.7053,1.7089,1.7087,1.7079,1.7014,1.6998,1.6993,1.6942,1.6964,1.6961,1.6959,1.6958,1.6868,1.6868,0,0,0,0,0,0,1.7237,1.7223,1.7144,1.7139,1.7184,1.7132,1.7123,1.7106,1.7054,1.7046,1.7079,1.7077,1.7004,1.6997,1.699,1.6957,1.696,1.6957,1.6955,1.6869,1.6868,1.6868,0,0,0,0,0,0,1.7239,1.723,1.7147,1.718,1.7169,1.713,1.7111,1.7104,1.7089,1.7046,1.7038,1.707,1.7004,1.6995,1.6961,1.6954,1.6956,1.6953,1.6869,1.6869,1.6868,1.6892,0,0,0,0,0,0,1.7243,1.7231,1.7223,1.7181,1.7167,1.7121,1.7111,1.7103,1.7084,1.7082,1.7036,1.7029,1.7003,1.6966,1.6957,1.6949,1.695,1.6869,1.6869,1.6868,1.6892,1.6893,1.6894,0,0,0,0,0,1.7247,1.7232,1.7223,1.7213,1.7157,1.7121,1.7113,1.7086,1.7083,1.7074,1.7046,1.703,1.6956,1.6963,1.6953,1.6943,1.687,1.6869,1.6868,1.6892,1.6893,1.6894,0,0,0,0,0,0,1.7272,1.7226,1.7215,1.7187,1.7158,1.7115,1.7102,1.7088,1.7058,1.7057,1.7023,1.7013,1.6982,1.6959,1.6967,1.6917,1.6911,1.6909,1.6933,1.6933,1.6934,1.694,1.6947,0,0,0,0,0,1.7275,1.7252,1.7211,1.719,1.7176,1.7142,1.7125,1.7107,1.7075,1.7062,1.7032,1.7,1.697,1.695,1.692,1.6889,1.6878,1.6877,1.6878,1.6879,1.6877,1.6858,1.6857,1.6866,1.6866,1.6866,0,0,1.728,1.7251,1.7238,1.7194,1.717,1.7145,1.7132,1.7106,1.7086,1.7058,1.7025,1.7001,1.6963,1.6931,1.6915,1.6911,1.6872,1.6878,1.6879,1.6876,1.6857,1.6856,1.6855,1.6865,1.6865,1.6865,0,0,1.7275,1.7252,1.7231,1.7208,1.7172,1.7149,1.7145,1.7104,1.7088,1.7054,1.7033,1.7007,1.6956,1.693,1.6909,1.6895,1.6879,1.6886,1.689,1.6872,1.6871,1.687,1.6864,1.6863,1.6884,1.6884,1.6884,0,1.7285,1.7248,1.7222,1.7198,1.7178,1.7154,1.7131,1.7109,1.7064,1.705,1.7047,1.6982,1.6955,1.6915,1.6912,1.6897,1.6889,1.6891,1.6874,1.6872,1.6871,1.6865,1.6863,1.6885,1.6885,1.6885,1.6885,0,1.7261,1.7236,1.7223,1.7183,1.7162,1.7139,1.7108,1.7089,1.7073,1.705,1.7015,1.6982,1.6944,1.6933,1.6916,1.6891,1.689,1.6881,1.6875,1.6872,1.6866,1.6863,1.6887,1.6886,1.6886,1.6886,0,0,1.7271,1.7217,1.7213,1.7194,1.7153,1.7132,1.7107,1.7072,1.7056,1.7026,1.7003,1.696,1.6952,1.6929,1.6908,1.6893,1.6882,1.6885,1.6883,1.6885,1.6852,1.6859,1.6857,1.6872,1.6871,1.6871,1.6855,0,1.7261,1.7217,1.7193,1.7158,1.7133,1.711,1.7087,1.7058,1.7036,1.7011,1.6985,1.6955,1.6946,1.6932,1.6916,1.6887,1.6875,1.6888,1.6848,1.6847,1.6858,1.6853,1.6861,1.6847,1.6852,1.6852,1.6851,0,1.7243,1.7215,1.7179,1.714,1.7129,1.711,1.7076,1.7052,1.7018,1.7003,1.6978,1.6958,1.6928,1.6925,1.6883,1.6893,1.6875,1.6858,1.6857,1.6851,1.6849,1.6847,1.6842,1.684,1.6847,1.6848,1.6848,0,1.7253,1.7206,1.7179,1.7163,1.7118,1.7105,1.7084,1.7051,1.7032,1.7001,1.6987,1.6953,1.6934,1.6907,1.6877,1.6878,1.6838,1.6832,1.6823,1.6823,1.6815,1.6816,1.6806,1.6804,1.6804,1.6805,1.6805,0,1.7244,1.7222,1.7183,1.7165,1.714,1.7111,1.7086,1.7064,1.7034,1.7011,1.6987,1.6965,1.6928,1.6901,1.6877,1.6846,1.6837,1.6823,1.6816,1.6824,1.6826,1.6812,1.6812,1.6804,1.6804,1.6804,1.6804,0,1.7251,1.7223,1.7191,1.7151,1.7141,1.7124,1.7088,1.7069,1.7046,1.7017,1.7008,1.6971,1.6938,1.6906,1.6861,1.6845,1.6813,1.6805,1.6825,1.6822,1.6814,1.6815,1.6794,1.6789,1.6792,1.6792,1.6792,0,1.7246,1.723,1.7188,1.7172,1.7153,1.7126,1.7107,1.7077,1.7057,1.7018,1.7003,1.6969,1.694,1.6888,1.6855,1.682,1.6811,1.6806,1.6806,1.6814,1.681,1.6811,1.6809,1.6807,1.6807,1.6807,1.6807,0,1.7241,1.7229,1.7203,1.7172,1.7149,1.7123,1.7095,1.7083,1.7048,1.7026,1.6993,1.6971,1.6926,1.6891,1.6853,1.6829,1.6812,1.6808,1.6804,1.6811,1.6823,1.6816,1.6826,1.6808,1.6808,1.6808,1.6808,1.6808,1.7242,1.7226,1.7194,1.7165,1.7142,1.7117,1.7098,1.7073,1.7045,1.7008,1.6991,1.6958,1.6923,1.687,1.6847,1.6819,1.6815,1.6809,1.6807,1.6806,1.6807,1.6829,1.6812,1.6812,1.6811,1.6811,1.6811,0,1.7235,1.7214,1.7188,1.7151,1.7128,1.7116,1.7085,1.7066,1.7037,1.7007,1.698,1.6941,1.6907,1.6873,1.6837,1.6821,1.6812,1.6812,1.6813,1.6807,1.6813,1.6821,1.682,1.682,1.682,1.682,1.682,1.682,1.7229,1.7201,1.7185,1.7144,1.7122,1.7091,1.7074,1.705,1.7026,1.6985,1.6958,1.6936,1.6903,1.6865,1.6833,1.6823,1.6811,1.6813,1.6801,1.6808,1.6807,1.6807,1.6813,1.6811,1.6811,1.6798,1.6797,1.6797]}]]